| time (UTC) | temp C | wind direction | speed KPH | gust KPH | rain 1hr cm | rain 24hr cm | rain mn cm | humidity % | barometer mb |
| 20260831210013 | 22 | 50 | 0.0 | 0.0 | 0.00 | 0.08 | 0.03 | 61 | 1017.9 |
| 20260831204513 | 23 | 154 | 0.0 | 0.0 | 0.00 | 0.08 | 0.03 | 54 | 1017.9 |
| 20260831203013 | 23 | 323 | 0.0 | 0.0 | 0.00 | 0.08 | 0.03 | 58 | 1018.1 |
| 20260831201511 | 23 | 317 | 0.0 | 3.2 | 0.00 | 0.08 | 0.03 | 56 | 1018.2 |
| 20260831200013 | 23 | 254 | 0.0 | 9.7 | 0.00 | 0.08 | 0.03 | 47 | 1018.3 |
| 20260831194508 | 23 | 307 | 0.0 | 4.8 | 0.00 | 0.08 | 0.03 | 50 | 1018.4 |
| 20260831193007 | 23 | 14 | 1.6 | 9.7 | 0.00 | 0.08 | 0.03 | 50 | 1018.4 |
| 20260831191508 | 24 | 163 | 1.6 | 8.0 | 0.00 | 0.08 | 0.03 | 50 | 1018.3 |
| 20260831190007 | 24 | 211 | 1.6 | 11.3 | 0.00 | 0.08 | 0.03 | 59 | 1018.3 |
| 20260831184506 | 25 | 182 | 0.0 | 9.7 | 0.00 | 0.08 | 0.03 | 58 | 1018.3 |
| 20260831183008 | 23 | 192 | 1.6 | 8.0 | 0.00 | 0.08 | 0.03 | 60 | 1018.5 |
| 20260831181506 | 23 | 173 | 0.0 | 3.2 | 0.00 | 0.08 | 0.03 | 61 | 1018.8 |
| 20260831180003 | 23 | 173 | 0.0 | 4.8 | 0.00 | 0.08 | 0.03 | 62 | 1018.9 |
| 20260831174502 | 24 | 177 | 1.6 | 4.8 | 0.00 | 0.08 | 0.03 | 53 | 1019.0 |
| 20260831173002 | 24 | 179 | 1.6 | 8.0 | 0.00 | 0.08 | 0.03 | 57 | 1018.8 |
| 20260831171502 | 24 | 192 | 1.6 | 8.0 | 0.00 | 0.08 | 0.03 | 61 | 1018.9 |
| 20260831170001 | 23 | 187 | 4.8 | 14.5 | 0.00 | 0.08 | 0.03 | 57 | 1019.3 |
| 20260831165149 | 24 | 185 | 0.0 | 11.3 | 0.00 | 0.08 | 0.03 | 58 | 1019.4 |
| 20260831162959 | 24 | 355 | 0.0 | 6.4 | 0.00 | 0.08 | 0.03 | 55 | 1019.5 |
| 20260831161501 | 24 | 169 | 0.0 | 3.2 | 0.00 | 0.08 | 0.03 | 53 | 1019.6 |
| 20260831160000 | 23 | 303 | 0.0 | 6.4 | 0.00 | 0.08 | 0.03 | 61 | 1019.7 |
| 20260831154502 | 23 | 233 | 0.0 | 4.8 | 0.00 | 0.08 | 0.03 | 59 | 1019.8 |
| 20260831152959 | 22 | 11 | 0.0 | 6.4 | 0.00 | 0.08 | 0.03 | 66 | 1019.9 |
| 20260831151458 | 21 | 168 | 0.0 | 6.4 | 0.00 | 0.08 | 0.03 | 68 | 1019.9 |
| 20260831145957 | 21 | 195 | 0.0 | 0.0 | 0.00 | 0.08 | 0.03 | 66 | 1019.8 |
| 20260831144457 | 21 | 255 | 0.0 | 0.0 | 0.00 | 0.08 | 0.03 | 76 | 1019.8 |
| 20260831142956 | 20 | 182 | 0.0 | 0.0 | 0.00 | 0.08 | 0.03 | 79 | 1020.1 |
| 20260831142208 | 20 | 182 | 0.0 | 8.0 | 0.00 | 0.08 | 0.03 | 77 | 1020.1 |
| 20260831135954 | 19 | 297 | 0.0 | 1.6 | 0.00 | 0.08 | 0.03 | 86 | 1020.0 |
| 20260831134453 | 17 | 304 | 0.0 | 0.0 | 0.00 | 0.08 | 0.03 | 91 | 1019.9 |
| 20260831134351 | 16 | 298 | 0.0 | 0.0 | 0.00 | 0.08 | 0.03 | 98 | 1020.1 |
| 20260831132153 | 15 | 299 | 0.0 | 0.0 | 0.00 | 0.08 | 0.03 | 99 | 1019.9 |
| 20260831125950 | 13 | 299 | 0.0 | 0.0 | 0.00 | 0.08 | 0.03 | 99 | 1020.1 |
| 20260831124449 | 12 | 299 | 0.0 | 0.0 | 0.00 | 0.08 | 0.03 | 98 | 1020.2 |
| 20260831122942 | 11 | 299 | 0.0 | 0.0 | 0.00 | 0.08 | 0.03 | 98 | 1020.1 |
| 20260831121441 | 11 | 299 | 0.0 | 0.0 | 0.00 | 0.08 | 0.03 | 97 | 1020.3 |
| 20260831115940 | 11 | 298 | 0.0 | 0.0 | 0.00 | 0.08 | 0.03 | 96 | 1020.5 |
| 20260831114442 | 11 | 299 | 0.0 | 0.0 | 0.00 | 0.08 | 0.03 | 96 | 1020.6 |
| 20260831112941 | 11 | 299 | 0.0 | 0.0 | 0.00 | 0.08 | 0.03 | 95 | 1020.6 |
| 20260831111440 | 11 | 299 | 0.0 | 0.0 | 0.00 | 0.08 | 0.03 | 95 | 1020.3 |
| 20260831105942 | 12 | 299 | 0.0 | 0.0 | 0.00 | 0.08 | 0.03 | 96 | 1020.3 |
| 20260831104442 | 12 | 299 | 0.0 | 0.0 | 0.00 | 0.08 | 0.03 | 97 | 1020.2 |
| 20260831102940 | 12 | 299 | 0.0 | 0.0 | 0.00 | 0.08 | 0.03 | 97 | 1020.1 |
| 20260831101441 | 12 | 299 | 0.0 | 0.0 | 0.00 | 0.08 | 0.03 | 97 | 1020.0 |
| 20260831095940 | 12 | 299 | 0.0 | 0.0 | 0.00 | 0.08 | 0.03 | 97 | 1020.0 |
| 20260831095838 | 12 | 298 | 0.0 | 0.0 | 0.00 | 0.08 | 0.03 | 97 | 1019.9 |
| 20260831092939 | 12 | 298 | 0.0 | 0.0 | 0.00 | 0.08 | 0.03 | 97 | 1019.7 |
| 20260831091437 | 12 | 298 | 0.0 | 0.0 | 0.00 | 0.08 | 0.03 | 96 | 1019.6 |
| 20260831085936 | 13 | 298 | 0.0 | 0.0 | 0.00 | 0.08 | 0.03 | 97 | 1019.4 |
| 20260831084433 | 13 | 298 | 0.0 | 0.0 | 0.00 | 0.08 | 0.03 | 97 | 1019.4 |
| 20260831082934 | 13 | 298 | 0.0 | 0.0 | 0.03 | 0.08 | 0.03 | 97 | 1019.4 |
| 20260831081425 | 13 | 298 | 0.0 | 0.0 | 0.03 | 0.08 | 0.03 | 97 | 1019.3 |
| 20260831075924 | 13 | 298 | 0.0 | 0.0 | 0.03 | 0.08 | 0.03 | 97 | 1019.1 |
| 20260831074425 | 13 | 298 | 0.0 | 0.0 | 0.03 | 0.08 | 0.03 | 97 | 1019.1 |
| 20260831072925 | 13 | 298 | 0.0 | 0.0 | 0.00 | 0.05 | 0.00 | 97 | 1018.9 |
| 20260831071425 | 13 | 298 | 0.0 | 0.0 | 0.00 | 0.05 | 0.00 | 96 | 1018.8 |
| 20260831065925 | 13 | 298 | 0.0 | 0.0 | 0.00 | 0.05 | 0.00 | 96 | 1018.7 |
| 20260831064420 | 14 | 298 | 0.0 | 0.0 | 0.00 | 0.05 | 0.00 | 96 | 1018.5 |
| 20260831062920 | 14 | 298 | 0.0 | 0.0 | 0.00 | 0.05 | 0.00 | 97 | 1018.5 |
| 20260831061420 | 14 | 298 | 0.0 | 0.0 | 0.00 | 0.05 | 0.00 | 97 | 1018.5 |
| 20260831055920 | 14 | 298 | 0.0 | 0.0 | 0.00 | 0.05 | 0.00 | 97 | 1018.6 |
| 20260831054420 | 14 | 298 | 0.0 | 0.0 | 0.00 | 0.05 | 0.00 | 96 | 1018.5 |
| 20260831052920 | 14 | 298 | 0.0 | 0.0 | 0.00 | 0.05 | 0.00 | 96 | 1018.5 |
| 20260831051421 | 15 | 298 | 0.0 | 0.0 | 0.00 | 0.05 | 0.00 | 96 | 1018.5 |
| 20260831045921 | 15 | 298 | 0.0 | 0.0 | 0.00 | 0.05 | 0.00 | 96 | 1018.7 |
| 20260831044422 | 15 | 298 | 0.0 | 0.0 | 0.00 | 0.05 | 0.00 | 96 | 1018.5 |
| 20260831042921 | 15 | 298 | 0.0 | 0.0 | 0.00 | 0.05 | 0.00 | 96 | 1018.4 |
| 20260831041419 | 16 | 298 | 0.0 | 0.0 | 0.00 | 0.05 | 0.00 | 96 | 1018.2 |
| 20260831035918 | 16 | 298 | 0.0 | 0.0 | 0.00 | 0.05 | 0.05 | 97 | 1018.1 |
| 20260831035112 | 16 | 298 | 0.0 | 0.0 | 0.00 | 0.05 | 0.05 | 96 | 1018.0 |
| 20260831032913 | 16 | 298 | 0.0 | 0.0 | 0.00 | 0.05 | 0.05 | 96 | 1018.0 |
| 20260831031413 | 16 | 298 | 0.0 | 0.0 | 0.00 | 0.05 | 0.05 | 97 | 1018.0 |
| 20260831031328 | 16 | 298 | 0.0 | 0.0 | 0.00 | 0.05 | 0.05 | 96 | 1018.1 |
| 20260831024408 | 16 | 298 | 0.0 | 0.0 | 0.00 | 0.05 | 0.05 | 96 | 1017.9 |
| 20260831022905 | 16 | 298 | 0.0 | 0.0 | 0.00 | 0.05 | 0.05 | 96 | 1018.0 |
| 20260831021400 | 16 | 298 | 0.0 | 0.0 | 0.00 | 0.05 | 0.05 | 96 | 1017.9 |
| 20260831015900 | 16 | 298 | 0.0 | 0.0 | 0.00 | 0.05 | 0.05 | 96 | 1018.0 |
| 20260831014357 | 16 | 298 | 0.0 | 0.0 | 0.00 | 0.05 | 0.05 | 95 | 1017.9 |
| 20260831012856 | 16 | 298 | 0.0 | 0.0 | 0.00 | 0.05 | 0.05 | 95 | 1017.4 |
| 20260831012048 | 16 | 298 | 0.0 | 0.0 | 0.00 | 0.05 | 0.05 | 95 | 1016.9 |
| 20260831005852 | 17 | 298 | 0.0 | 0.0 | 0.00 | 0.05 | 0.05 | 95 | 1017.1 |
| 20260831004351 | 17 | 298 | 0.0 | 0.0 | 0.00 | 0.05 | 0.05 | 95 | 1016.7 |
| 20260831002849 | 17 | 298 | 0.0 | 0.0 | 0.03 | 0.05 | 0.05 | 94 | 1016.7 |
| 20260831001349 | 17 | 298 | 0.0 | 0.0 | 0.05 | 0.05 | 0.05 | 94 | 1016.4 |
| 20260830235849 | 17 | 298 | 0.0 | 0.0 | 0.05 | 0.05 | 0.05 | 93 | 1016.2 |
| 20260830234346 | 18 | 294 | 0.0 | 0.0 | 0.05 | 0.05 | 0.05 | 93 | 1016.0 |
| 20260830232846 | 18 | 355 | 0.0 | 0.0 | 0.03 | 0.03 | 0.03 | 91 | 1016.0 |
| 20260830232037 | 18 | 355 | 1.6 | 9.7 | 0.00 | 0.00 | 0.00 | 90 | 1015.6 |
| 20260830225844 | 19 | 337 | 0.0 | 0.0 | 0.00 | 0.00 | 0.00 | 89 | 1015.8 |
| 20260830225049 | 19 | 23 | 0.0 | 0.0 | 0.00 | 0.00 | 0.00 | 88 | 1015.6 |
| 20260830222845 | 19 | 23 | 0.0 | 0.0 | 0.00 | 0.00 | 0.00 | 88 | 1015.7 |
| 20260830221344 | 20 | 23 | 0.0 | 0.0 | 0.00 | 0.00 | 0.00 | 87 | 1015.6 |
| 20260830215846 | 20 | 23 | 0.0 | 0.0 | 0.00 | 0.00 | 0.00 | 86 | 1015.5 |
| 20260830214344 | 20 | 23 | 0.0 | 0.0 | 0.00 | 0.00 | 0.00 | 85 | 1015.5 |
| 20260830212844 | 21 | 23 | 0.0 | 0.0 | 0.00 | 0.00 | 0.00 | 83 | 1015.4 |
| 20260830211342 | 21 | 23 | 0.0 | 0.0 | 0.00 | 0.00 | 0.00 | 80 | 1015.4 |